Location: Pinawa
(50.1500°N, 95.8830°W)
Time: 05:33:20
(UTC-05:00)

Amateur Radio Satellites - All Passes

Search period start: 25 July 2014 05:03
Search period end: 26 July 2014 05:03
Location: Pinawa, 50.1500°N, 95.8830°W

Satellite Date Start Highest point End Downlink Frequencies (MHz)
Time Altitude Azimuth
MaSat-1 25 Jul 05:13:37 05:15:47 12° 23° (NNE) 05:17:59 437.345 MHz
Sapphire 25 Jul 05:15:13 05:19:21 22° 332° (NNW) 05:23:31 437.095 MHz 1200 baud AX-25 AFSK
STRAND 1 25 Jul 05:26:09 05:29:08 16° 53° (NE) 05:32:06 ?
Oscar 19 25 Jul 05:37:40 05:38:06 10° 312° (NW) 05:38:32 437.125 CW, 437.150 USB
Oscar 10/S400 25 Jul 05:42:13 06:51:20 36° 227° (SW) 11:23:46 145.825 - 145.975 CW/USB, Beacon 145.810 USB
AO-7 25 Jul 05:49:37 05:57:54 61° 104° (ESE) 06:06:05 29.400 - 29.500 MHz
PCSat 25 Jul 05:50:34 05:53:59 17° 341° (NNW) 05:57:25 145.825 MHz
ISS 25 Jul 05:57:03 06:00:26 75° 10° (N) 06:03:48 145.800 FM
TMSAT-1 25 Jul 06:08:36 06:12:56 26° 300° (WNW) 06:17:15 436.925 FM
JAS-2 25 Jul 06:11:32 06:14:30 14° 80° (E) 06:17:20 435.800 - 435.900 CW/SSB, 435.910 FM
Lituanica SAT-1 25 Jul 06:14:03 06:15:39 19° 212° (SSW) 06:17:14 437.275 MHz beacon
Gurwin Techsat 1B 25 Jul 06:31:08 06:34:05 15° 308° (NW) 06:37:03 435.225 FM
Uosat F 25 Jul 06:39:12 06:44:00 45° 293° (WNW) 06:48:46 435.120 FM
JAS-1B 25 Jul 06:39:58 06:47:43 28° 314° (NW) 06:54:59 435.800 - 435.900 CW/SSB
MaSat-1 25 Jul 06:49:55 06:54:44 34° 45° (NE) 06:59:32 437.345 MHz
Hamsat 25 Jul 07:01:46 07:05:45 37° 97° (E) 07:09:45 145.90 MHz
Sapphire 25 Jul 07:02:22 07:04:54 13° 358° (N) 07:07:26 437.095 MHz 1200 baud AX-25 AFSK
STRAND 1 25 Jul 07:02:24 07:07:34 81° 73° (ENE) 07:12:44 ?
KITSAT 1 25 Jul 07:13:28 07:20:38 37° 110° (ESE) 07:27:49 435.175 FM
ISS 25 Jul 07:33:52 07:37:03 40° 209° (SSW) 07:40:13 145.800 FM
PCSat 25 Jul 07:37:01 07:39:43 14° 8° (N) 07:42:26 145.825 MHz
AO-7 25 Jul 07:42:48 07:50:26 42° 306° (NW) 07:58:02 29.400 - 29.500 MHz
JAS-2 25 Jul 07:54:31 08:00:59 77° 103° (ESE) 08:06:38 435.800 - 435.900 CW/SSB, 435.910 FM
MaSat-1 25 Jul 08:27:11 08:32:24 55° 245° (WSW) 08:37:28 437.345 MHz
JAS-1B 25 Jul 08:32:07 08:34:56 12° 339° (NNW) 08:37:42 435.800 - 435.900 CW/SSB
Hamsat 25 Jul 08:37:59 08:41:37 27° 295° (WNW) 08:45:16 145.90 MHz
STRAND 1 25 Jul 08:44:10 08:47:24 17° 272° (W) 08:50:39 ?
Sapphire 25 Jul 08:46:43 08:50:34 19° 24° (NNE) 08:54:23 437.095 MHz 1200 baud AX-25 AFSK
SO-67 25 Jul 08:47:40 08:51:10 89° 104° (ESE) 08:54:39 435.3500 MHz FM
KITSAT 1 25 Jul 09:07:30 09:15:35 70° 313° (NW) 09:23:43 435.175 FM
HO-68 25 Jul 09:14:36 09:19:42 21° 88° (E) 09:24:46 435.675 MHz FM
PCSat 25 Jul 09:20:32 09:25:05 26° 33° (NNE) 09:29:37 145.825 MHz
Saudisat 1A 25 Jul 09:35:38 09:39:53 49° 123° (ESE) 09:44:11 436.775 MHz
AO-7 25 Jul 09:36:56 09:41:05 15° 330° (NNW) 09:45:13 29.400 - 29.500 MHz
JAS-2 25 Jul 09:40:22 09:45:20 24° 307° (NW) 09:49:53 435.800 - 435.900 CW/SSB, 435.910 FM
Oscar 11 25 Jul 09:50:17 09:50:35 10° 85° (E) 09:50:53 145.825 FM, Beacon 2401.500 USB
Sapphire 25 Jul 10:29:49 10:35:11 56° 48° (NE) 10:40:31 437.095 MHz 1200 baud AX-25 AFSK
UKube-1 25 Jul 10:33:31 10:37:45 47° 100° (E) 10:41:57 145.840 MHz, 145.915 MHz
HO-68 25 Jul 11:01:11 11:08:24 89° 108° (ESE) 11:15:33 435.675 MHz FM
PCSat 25 Jul 11:03:43 11:09:11 86° 235° (SW) 11:14:37 145.825 MHz
KITSAT 1 25 Jul 11:05:26 11:12:29 31° 339° (NNW) 11:19:33 435.175 FM
Saudisat 1A 25 Jul 11:15:37 11:19:40 33° 324° (NW) 11:23:43 436.775 MHz
Oscar 11 25 Jul 11:23:09 11:27:31 82° 104° (ESE) 11:31:51 145.825 FM, Beacon 2401.500 USB
FUNcube-1 25 Jul 11:33:18 11:37:15 40° 98° (E) 11:41:12 145.950 - 145.970 MHz USB
Oscar 19 25 Jul 12:02:02 12:03:54 12° 50° (NE) 12:05:47 437.125 CW, 437.150 USB
JAS-1B 25 Jul 12:02:20 12:07:28 16° 32° (NNE) 12:12:41 435.800 - 435.900 CW/SSB
UKube-1 25 Jul 12:10:15 12:13:43 23° 299° (WNW) 12:17:10 145.840 MHz, 145.915 MHz
Sapphire 25 Jul 12:13:40 12:18:22 31° 248° (WSW) 12:23:03 437.095 MHz 1200 baud AX-25 AFSK
Oscar 16 25 Jul 12:27:38 12:31:11 19° 56° (NE) 12:34:44 437.025 USB, Beacon 2401.1428
ITAMSAT 1 25 Jul 12:41:29 12:43:58 14° 51° (NE) 12:46:27 435.822 SSB
PCSat 25 Jul 12:48:34 12:51:50 16° 255° (WSW) 12:55:05 145.825 MHz
AO-Echo 25 Jul 12:48:39 12:51:41 16° 53° (NE) 12:54:44 ?
HO-68 25 Jul 12:49:45 12:55:19 26° 310° (NW) 13:00:53 435.675 MHz FM
Saudisat 1A 25 Jul 12:58:05 13:00:32 14° 347° (NNW) 13:02:58 436.775 MHz
AO-27 25 Jul 12:58:23 13:01:51 18° 55° (NE) 13:05:19 436.795 MHz FM
Uribyol 2 25 Jul 13:00:34 13:04:10 19° 56° (NE) 13:07:46 436.500 FM
Oscar 11 25 Jul 13:00:43 13:03:08 15° 303° (WNW) 13:05:33 145.825 FM, Beacon 2401.500 USB
KITSAT 1 25 Jul 13:03:58 13:10:37 27° 9° (N) 13:17:15 435.175 FM
FUNcube-1 25 Jul 13:10:08 13:13:30 24° 297° (WNW) 13:16:51 145.950 - 145.970 MHz USB
AO-7 25 Jul 13:16:04 13:19:20 13° 26° (NNE) 13:22:36 29.400 - 29.500 MHz
SO-50 25 Jul 13:28:19 13:31:05 16° 111° (ESE) 13:33:52 436.795 FM
Oscar 19 25 Jul 13:37:15 13:42:16 61° 70° (ENE) 13:47:20 437.125 CW, 437.150 USB
JAS-1B 25 Jul 13:47:02 13:55:20 42° 56° (NE) 14:04:17 435.800 - 435.900 CW/SSB
Oscar 16 25 Jul 14:04:50 14:09:58 79° 256° (WSW) 14:15:08 437.025 USB, Beacon 2401.1428
TMSAT-1 25 Jul 14:15:14 14:19:27 25° 59° (ENE) 14:23:40 436.925 FM
ITAMSAT 1 25 Jul 14:17:23 14:22:33 67° 71° (ENE) 14:27:45 435.822 SSB
RS-15 25 Jul 14:24:07 14:34:21 45° 112° (ESE) 14:44:25 29.354 - 29.394 USB, Beacon 29.352 USB
AO-Echo 25 Jul 14:24:20 14:29:38 77° 73° (ENE) 14:34:59 ?
AO-27 25 Jul 14:35:29 14:40:44 87° 254° (WSW) 14:46:00 436.795 MHz FM
Gurwin Techsat 1B 25 Jul 14:36:00 14:41:01 44° 66° (ENE) 14:46:03 435.225 FM
Uribyol 2 25 Jul 14:37:51 14:43:04 81° 255° (WSW) 14:48:18 436.500 FM
Saudisat 1A 25 Jul 14:39:32 14:41:54 14° 12° (NNE) 14:44:17 436.775 MHz
Uosat F 25 Jul 14:43:19 14:45:23 13° 50° (NE) 14:47:27 435.120 FM
KITSAT 1 25 Jul 15:00:25 15:08:12 47° 37° (NE) 15:15:55 435.175 FM
AO-7 25 Jul 15:02:26 15:09:41 35° 51° (NE) 15:16:57 29.400 - 29.500 MHz
SO-50 25 Jul 15:06:31 15:11:01 83° 311° (NW) 15:15:39 436.795 FM
Oscar 19 25 Jul 15:18:07 15:22:02 22° 269° (W) 15:25:59 437.125 CW, 437.150 USB
JAS-1B 25 Jul 15:36:25 15:45:15 69° 259° (W) 15:55:09 435.800 - 435.900 CW/SSB
Oscar 16 25 Jul 15:48:07 15:50:11 12° 275° (W) 15:52:16 437.025 USB, Beacon 2401.1428
UOSAT-12 25 Jul 15:49:32 15:53:29 28° 117° (ESE) 15:57:30 437.025 FM, 437.400 FM
TMSAT-1 25 Jul 15:53:45 15:59:00 62° 258° (WSW) 16:04:17 436.925 FM
ITAMSAT 1 25 Jul 15:58:43 16:02:33 20° 270° (W) 16:06:24 435.822 SSB
AO-Echo 25 Jul 16:05:20 16:08:59 19° 272° (W) 16:12:40 ?
Gurwin Techsat 1B 25 Jul 16:16:25 16:21:08 32° 265° (W) 16:25:53 435.225 FM
Uosat F 25 Jul 16:18:16 16:23:15 64° 70° (ENE) 16:28:16 435.120 FM
AO-27 25 Jul 16:18:16 16:21:01 14° 273° (W) 16:23:48 436.795 MHz FM
Saudisat 1A 25 Jul 16:18:49 16:22:49 32° 35° (NE) 16:26:47 436.775 MHz
Uribyol 2 25 Jul 16:21:02 16:23:23 13° 274° (W) 16:25:45 436.500 FM
JAS-2 25 Jul 16:28:12 16:32:53 18° 48° (NE) 16:37:22 435.800 - 435.900 CW/SSB, 435.910 FM
RS-15 25 Jul 16:35:14 16:46:15 69° 318° (NW) 16:57:12 29.354 - 29.394 USB, Beacon 29.352 USB
SO-50 25 Jul 16:48:39 16:52:16 23° 333° (NNW) 16:55:58 436.795 FM
OPAL 25 Jul 16:51:55 16:56:16 28° 97° (E) 17:00:37 ?
AO-7 25 Jul 16:53:32 17:01:54 75° 253° (WSW) 17:10:19 29.400 - 29.500 MHz
KITSAT 1 25 Jul 16:56:01 17:03:58 63° 241° (WSW) 17:11:52 435.175 FM
UOSAT-12 25 Jul 17:28:51 17:33:24 54° 317° (NW) 17:38:04 437.025 FM, 437.400 FM
JAS-1B 25 Jul 17:31:43 17:37:42 19° 282° (WNW) 17:44:06 435.800 - 435.900 CW/SSB
Saudisat 1A 25 Jul 17:58:19 18:02:38 52° 236° (SW) 18:06:54 436.775 MHz
Uosat F 25 Jul 17:58:45 18:02:29 21° 269° (W) 18:06:15 435.120 FM
Hamsat 25 Jul 17:59:36 18:03:36 46° 70° (ENE) 18:07:38 145.90 MHz
JAS-2 25 Jul 18:09:03 18:16:42 61° 68° (ENE) 18:23:52 435.800 - 435.900 CW/SSB, 435.910 FM
OPAL 25 Jul 18:30:31 18:35:21 48° 295° (WNW) 18:40:13 ?
SO-50 25 Jul 18:32:05 18:34:29 14° 358° (N) 18:36:54 436.795 FM
RS-15 25 Jul 18:50:42 19:00:48 39° 349° (N) 19:10:57 29.354 - 29.394 USB, Beacon 29.352 USB
AO-7 25 Jul 18:50:44 18:56:09 18° 274° (W) 19:01:36 29.400 - 29.500 MHz
KITSAT 1 25 Jul 18:53:44 18:57:46 15° 262° (W) 19:01:47 435.175 FM
STRAND 1 25 Jul 19:09:16 19:12:54 19° 90° (E) 19:16:30 ?
UOSAT-12 25 Jul 19:11:13 19:14:34 19° 340° (NNW) 19:17:57 437.025 FM, 437.400 FM
SO-67 25 Jul 19:25:05 19:28:30 60° 74° (ENE) 19:31:57 435.3500 MHz FM
Hamsat 25 Jul 19:36:42 19:39:50 20° 269° (W) 19:43:00 145.90 MHz
HO-68 25 Jul 19:48:21 19:54:14 29° 52° (NE) 20:00:07 435.675 MHz FM
JAS-2 25 Jul 19:54:56 20:02:00 37° 267° (W) 20:08:45 435.800 - 435.900 CW/SSB, 435.910 FM
UKube-1 25 Jul 20:00:33 20:02:13 12° 54° (NE) 20:03:54 145.840 MHz, 145.915 MHz
SO-50 25 Jul 20:13:20 20:16:47 20° 23° (NNE) 20:20:16 436.795 FM
STRAND 1 25 Jul 20:47:30 20:52:37 69° 289° (WNW) 20:57:41 ?
Oscar 11 25 Jul 20:48:33 20:51:12 16° 58° (ENE) 20:53:52 145.825 FM, Beacon 2401.500 USB
UOSAT-12 25 Jul 20:53:55 20:56:30 14° 4° (N) 20:59:06 437.025 FM, 437.400 FM
SO-67 25 Jul 21:00:45 21:01:59 12° 272° (W) 21:03:13 435.3500 MHz FM
RS-15 25 Jul 21:05:55 21:16:19 45° 23° (NNE) 21:26:55 29.354 - 29.394 USB, Beacon 29.352 USB
UKube-1 25 Jul 21:33:20 21:37:41 76° 73° (ENE) 21:42:05 145.840 MHz, 145.915 MHz
HO-68 25 Jul 21:34:08 21:41:19 79° 253° (WSW) 21:48:32 435.675 MHz FM
SO-50 25 Jul 21:53:35 21:58:15 60° 45° (NE) 22:03:00 436.795 FM
Oscar 11 25 Jul 22:22:36 22:26:53 73° 257° (WSW) 22:31:13 145.825 FM, Beacon 2401.500 USB
MaSat-1 25 Jul 22:23:37 22:27:10 28° 107° (ESE) 22:31:12 437.345 MHz
STRAND 1 25 Jul 22:28:28 22:30:56 14° 309° (NW) 22:33:22 ?
FUNcube-1 25 Jul 22:34:04 22:38:20 60° 72° (ENE) 22:42:32 145.950 - 145.970 MHz USB
UOSAT-12 25 Jul 22:34:19 22:38:15 25° 29° (NNE) 22:42:10 437.025 FM, 437.400 FM
UKube-1 25 Jul 23:12:08 23:14:27 14° 271° (W) 23:16:47 145.840 MHz, 145.915 MHz
RS-15 25 Jul 23:18:58 23:30:00 88° 232° (SW) 23:41:24 29.354 - 29.394 USB, Beacon 29.352 USB
HO-68 25 Jul 23:25:38 23:30:11 18° 274° (W) 23:34:45 435.675 MHz FM
SO-50 25 Jul 23:34:39 23:38:33 26° 244° (WSW) 23:42:28 436.795 FM
MaSat-1 26 Jul 00:00:11 00:04:18 45° 311° (NW) 00:09:02 437.345 MHz
FUNcube-1 26 Jul 00:12:18 00:15:08 17° 270° (W) 00:17:56 145.950 - 145.970 MHz USB
UOSAT-12 26 Jul 00:14:15 00:19:01 89° 230° (SW) 00:23:44 437.025 FM, 437.400 FM
Sapphire 26 Jul 01:18:18 01:21:47 18° 106° (ESE) 01:25:18 437.095 MHz 1200 baud AX-25 AFSK
Lituanica SAT-1 26 Jul 01:19:29 01:21:30 49° 158° (SSE) 01:23:32 437.275 MHz beacon
RS-15 26 Jul 01:32:10 01:40:59 29° 256° (WSW) 01:50:04 29.354 - 29.394 USB, Beacon 29.352 USB
MaSat-1 26 Jul 01:40:35 01:43:02 14° 334° (NNW) 01:45:36 437.345 MHz
Oscar 19 26 Jul 01:45:24 01:48:21 15° 87° (E) 01:51:17 437.125 CW, 437.150 USB
PCSat 26 Jul 01:50:25 01:55:12 33° 113° (ESE) 02:00:01 145.825 MHz
ISS 26 Jul 01:55:23 01:58:18 28° 146° (SE) 02:01:13 145.800 FM
UOSAT-12 26 Jul 01:55:44 01:58:31 16° 249° (WSW) 02:01:17 437.025 FM, 437.400 FM
Oscar 16 26 Jul 02:12:14 02:16:33 26° 93° (E) 02:20:50 437.025 USB, Beacon 2401.1428
ITAMSAT 1 26 Jul 02:26:44 02:30:02 17° 88° (E) 02:33:17 435.822 SSB
AO-Echo 26 Jul 02:28:14 02:31:43 18° 88° (E) 02:35:06 ?
OPAL 26 Jul 02:35:11 02:38:08 16° 51° (NE) 02:41:05 ?
AO-27 26 Jul 02:44:27 02:48:37 24° 92° (E) 02:52:45 436.795 MHz FM
Uribyol 2 26 Jul 02:46:24 02:50:41 25° 93° (E) 02:54:55 436.500 FM
Gurwin Techsat 1B 26 Jul 02:49:26 02:51:23 12° 84° (E) 02:53:20 435.225 FM
Lituanica SAT-1 26 Jul 02:51:58 02:54:01 52° 356° (N) 02:56:03 437.275 MHz beacon
Sapphire 26 Jul 02:59:05 03:04:30 88° 305° (NW) 03:09:58 437.095 MHz 1200 baud AX-25 AFSK
JAS-1B 26 Jul 03:17:40 03:26:38 40° 91° (E) 03:34:35 435.800 - 435.900 CW/SSB
Oscar 19 26 Jul 03:23:13 03:28:25 87° 286° (WNW) 03:33:36 437.125 CW, 437.150 USB
ISS 26 Jul 03:31:25 03:34:47 88° 346° (NNW) 03:38:10 145.800 FM
PCSat 26 Jul 03:33:09 03:38:26 52° 313° (NW) 03:43:46 145.825 MHz
Oscar 16 26 Jul 03:51:11 03:56:11 51° 292° (WNW) 04:01:10 437.025 USB, Beacon 2401.1428
TMSAT-1 26 Jul 04:04:55 04:09:51 38° 96° (E) 04:14:44 436.925 FM
ITAMSAT 1 26 Jul 04:04:58 04:10:11 80° 287° (WNW) 04:15:21 435.822 SSB
AO-Echo 26 Jul 04:05:54 04:11:06 73° 288° (WNW) 04:16:05 ?
OPAL 26 Jul 04:11:22 04:16:19 84° 70° (ENE) 04:21:18 ?
Uosat F 26 Jul 04:22:57 04:25:27 14° 87° (E) 04:27:56 435.120 FM
AO-27 26 Jul 04:23:24 04:28:30 57° 291° (WNW) 04:33:34 436.795 MHz FM
Lituanica SAT-1 26 Jul 04:24:32 04:26:35 88° 335° (NNW) 04:28:38 437.275 MHz beacon
Uribyol 2 26 Jul 04:25:26 04:30:28 53° 292° (WNW) 04:35:28 436.500 FM
Gurwin Techsat 1B 26 Jul 04:26:58 04:32:19 74° 104° (ESE) 04:37:37 435.225 FM
Sapphire 26 Jul 04:44:14 04:48:40 25° 328° (NNW) 04:53:08 437.095 MHz 1200 baud AX-25 AFSK
